{"data":{"norad_id":58192,"intl_designator":"2023-167T","name":"STARLINK-30807","alt_names":[],"object_type":"PAYLOAD","status":"ACTIVE","operator":null,"country":"US","launch_date":"2023-10-30","launch_site_code":"AFETR","launch_vehicle":null,"mission":null,"orbit_class":"UNKNOWN","rcs_meters":null,"size_class":null,"mass_kg":null,"dimensions":null,"purposes":["comms"],"wikipedia_slug":null,"has_3d_model":false,"image_url":null,"decayed_at":null,"tle_current":{"epoch":"2026-05-25T04:26:12.673824Z","epoch_age_seconds":55036,"freshness":"FRESH","line1":"1 58192U 23167T   26145.18486891  .00019502  00000+0  71558-3 0  9992","line2":"2 58192  43.0061  71.4267 0002238 265.6874  94.3722 15.27613540142683","mean_motion":15.2761354,"eccentricity":0.0002238,"inclination_deg":43.0061,"raan_deg":71.4267,"arg_perigee_deg":265.6874,"mean_anomaly_deg":94.3722,"bstar":0.00071558,"rev_number":14268,"period_min":94.264679010373,"perigee_km":481.41315607895,"apogee_km":484.48417802353,"semimajor_km":6861.0856670512,"source":"CELESTRAK","updated_at":"2026-05-25T13:38:18.572527Z"}}}